Weather History for Madera, CA

Change the Weather History Date:

Saturday, December 8, 2012

  Actual Average Record
Temperature  
Mean Temperature 46 °F 46 °F  
Max Temperature 52 °F 56 °F 76 °F (2006)
Min Temperature 39 °F 37 °F 25 °F (2013)
Degree Days  
Heating Degree Days 19    
Month to date heating degree days 77  
Since 1 July heating degree days 445  
Cooling Degree Days 0    
Month to date cooling degree days 0  
Year to date cooling degree days 1737  
Moisture  
Dew Point 45 °F    
Average Humidity 95    
Maximum Humidity 100    
Minimum Humidity 89    
Precipitation  
Precipitation 0.01 in 0.04 in 0.31 in (2004)
Month to date precipitation 0.72 0.29  
Year to date precipitation 9.12 10.61  
Since 1 July precipitation 2.90 2.61  
Snow  
Snow 0.00 in - - ()
Month to date snowfall 0.0  
Since 1 July snowfall 0.0  
Snow Depth 0.00 in    
Sea Level Pressure  
Sea Level Pressure 30.07 in    
Wind  
Wind Speed 2 mph (WNW)    
Max Wind Speed 9 mph    
Max Gust Speed 12 mph    
Visibility 1 miles    
Events Fog    
T = Trace of Precipitation, MM = Missing Value Source: NWS Daily Summary

Daily Weather History Graph

Daily Weather History Graph

Search for Another Location

Airport:

Trip Planner

Search our weather history database for the weather conditions in past years. The results will help you decide how hot, cold, wet, or windy it might be!

Date:

Astronomy

Dec. 08, 2012 Rise Set
Actual Time 7:01 AM PST 4:43 PM PST
Civil Twilight 6:32 AM PST 5:12 PM PST
Nautical Twilight 6:00 AM PST 5:44 PM PST
Astronomical Twilight 5:28 AM PST 6:16 PM PST
Moon 1:38 AM PST (12/8) 1:11 PM PST (12/8)
Length of Visible Light 10h 39m
Length of Day
9h 41m
Waning Crescent, 27% of the Moon is Illuminated
Dec 8
Waning Crescent
Dec 13
New
Dec 19
First Quarter
Dec 28
Full
Jan 4
Last Quarter

Hourly Weather History & Observations

Time (PST) Temp. Dew Point Humidity Pressure Visibility Wind Dir Wind Speed Gust Speed Precip Events Conditions
12:53 AM 43.0 °F 42.1 °F 97% 30.07 in 0.5 mi Calm Calm - N/A Fog Fog
1:22 AM 42.8 °F 42.8 °F 100% 30.07 in 1.0 mi Calm Calm - N/A   Clear
1:53 AM 43.0 °F 42.1 °F 97% 30.08 in 1.0 mi Calm Calm - N/A   Clear
2:07 AM 42.8 °F 42.8 °F 100% 30.07 in 3.0 mi Calm Calm - N/A   Clear
2:31 AM 42.8 °F 42.8 °F 100% 30.08 in 2.0 mi Calm Calm - N/A   Clear
2:37 AM 42.8 °F 41.0 °F 93% 30.08 in 0.8 mi Calm Calm - N/A   Clear
3:10 AM 42.8 °F 41.0 °F 93% 30.06 in 2.0 mi Calm Calm - N/A   Clear
3:21 AM 42.8 °F 41.0 °F 93% 30.06 in 4.0 mi Calm Calm - N/A   Clear
3:43 AM 41.0 °F 39.2 °F 93% 30.06 in 2.5 mi Calm Calm - N/A   Clear
3:53 AM 41.0 °F 39.0 °F 93% 30.06 in 2.5 mi Calm Calm - N/A   Clear
3:57 AM 41.0 °F 39.2 °F 93% 30.06 in 0.8 mi Calm Calm - N/A   Clear
4:12 AM 39.2 °F 39.2 °F 100% 30.06 in 0.5 mi Calm Calm - N/A Fog Fog
4:53 AM 39.0 °F 37.9 °F 96% 30.06 in 0.2 mi Calm Calm - N/A Fog Fog
5:53 AM 39.9 °F 39.9 °F 100% 30.06 in 0.2 mi Calm Calm - N/A Fog Fog
6:53 AM 42.1 °F 41.0 °F 96% 30.07 in 0.2 mi Calm Calm - N/A Fog Fog
7:53 AM 42.1 °F 41.0 °F 96% 30.08 in 0.2 mi Calm Calm - 0.01 in Fog Fog
8:53 AM 45.0 °F 45.0 °F 100% 30.09 in 0.2 mi Calm Calm - N/A Fog Fog
9:53 AM 46.9 °F 46.0 °F 97% 30.10 in 0.2 mi Calm Calm - N/A Fog Fog
10:53 AM 48.0 °F 48.0 °F 100% 30.10 in 0.2 mi Calm Calm - N/A Fog Fog
11:53 AM 48.9 °F 48.0 °F 97% 30.08 in 0.8 mi West 4.6 mph - N/A   Overcast
12:04 PM 48.2 °F 48.2 °F 100% 30.08 in 1.2 mi West 5.8 mph - N/A   Overcast
12:15 PM 50.0 °F 48.2 °F 94% 30.07 in 3.0 mi West 5.8 mph - N/A   Overcast
12:53 PM 51.1 °F 48.9 °F 92% 30.07 in 4.0 mi NW 8.1 mph - N/A   Overcast
1:53 PM 51.1 °F 48.9 °F 92% 30.04 in 4.0 mi West 4.6 mph - N/A   Overcast
2:39 PM 51.8 °F 48.2 °F 88% 30.03 in 2.5 mi WNW 9.2 mph - N/A   Overcast
2:53 PM 51.1 °F 48.9 °F 92% 30.04 in 2.5 mi WNW 9.2 mph - N/A   Overcast
3:07 PM 50.0 °F 48.2 °F 94% 30.03 in 1.2 mi West 8.1 mph - N/A   Overcast
3:44 PM 50.0 °F 48.2 °F 94% 30.03 in 0.8 mi West 5.8 mph - N/A   Overcast
3:53 PM 50.0 °F 48.0 °F 93% 30.04 in 0.5 mi West 4.6 mph - N/A Fog Fog
4:45 PM 48.2 °F 48.2 °F 100% 30.04 in 1.2 mi NNW 3.5 mph - N/A   Overcast
5:27 PM 48.2 °F 48.2 °F 100% 30.04 in 0.5 mi Calm Calm - N/A Fog Fog
5:53 PM 48.9 °F 48.9 °F 100% 30.05 in 1.0 mi NNW 3.5 mph - N/A   Mist
6:12 PM 48.2 °F 48.2 °F 100% 30.05 in 0.5 mi Calm Calm - N/A Fog Fog
6:53 PM 48.9 °F 48.0 °F 97% 30.06 in 0.5 mi Calm Calm - N/A Fog Fog
7:53 PM 48.0 °F 46.9 °F 96% 30.06 in 0.2 mi WNW 3.5 mph - N/A Fog Fog
8:53 PM 48.0 °F 46.9 °F 96% 30.08 in 0.2 mi NNW 5.8 mph - N/A Fog Fog
9:53 PM 46.9 °F 46.9 °F 100% 30.09 in 0.2 mi Calm Calm - N/A Fog Fog
10:53 PM 46.9 °F 46.9 °F 100% 30.09 in 0.2 mi Calm Calm - N/A Fog Fog
11:53 PM 46.9 °F 46.0 °F 97% 30.10 in 0.2 mi Calm Calm - N/A Fog Fog